Regional Weather Roundup
Issued by NWS New Orleans/Baton Rouge, LA

Home | Current Version | Previous Version | Text Only | Print | Product List | Glossary On
Versions: 1 2 3 4 5 6 7 8 9 10 11 12 13 14 15 16 17 18 19 20 21 22 23 24 25 26 27 28 29
000
ASUS44 KLIX 300911
RWRLIX
NEW ORLEANS REGIONAL WEATHER ROUNDUP
NATIONAL WEATHER SERVICE NEW ORLEANS LA
400 AM CDT SAT JUL 30 2016

NOTE: "FAIR" INDICATES FEW OR NO CLOUDS BELOW 12,000 FEET WITH NO
      SIGNIFICANT WEATHER AND/OR OBSTRUCTIONS TO VISIBILITY.
      SKY/WX - SKY CONDITION AND SIGNIFICANT WEATHER.
      TMP - AIR TEMPERATURE.     DP    - DEWPOINT TEMPERATURE.
      RH  - RELATIVE HUMIDITY.   PRES  - PRESSURE.
      HI  - HEAT INDEX.          WCI   - WIND CHILL INDEX.

*  THESE STATIONS ARE NOT NWS OR FAA STATIONS AND ARE NOT UNDER
   NWS QUALITY CONTROL.

LAZ038-040-048-061>063-065>067-069-301000-
SOUTHEAST LOUISIANA

CITY           SKY/WX    TMP DP  RH WIND       PRES   REMARKS
N.O. AUDUBON     N/A     78  78 100 MISG        N/A
N.O. INTL ARPT PTCLDY    80  75  84 CALM      30.00F
N.O. LAKEFRONT CLEAR     83  76  79 SW7       30.01S
N.O. DOWNTOWN*   N/A     80  76  87 CALM      30.01F
RESERVE*         N/A     76  74  93 CALM      30.01R
SLIDELL        CLEAR     75  73  93 CALM      30.00S
BATON ROUGE    CLEAR     76  73  91 NE3       30.00S
BOOTHVILLE     CLEAR     84  76  76 SW8       30.00S
BELLE CHASSE   CLEAR     76  75  97 CALM      30.00S
BOGALUSA*        N/A     75  72  88 CALM      30.02R
GALLIANO*        N/A     69  69 100 CALM      30.00S
NEW ROADS*       N/A     74  73  98 CALM      30.00S
GONZALES*        N/A     76  76 100 CALM      29.99S
HAMMOND*       CLEAR     75  72  88 CALM      30.00S
HOUMA*         CLEAR     76  76  98 CALM      30.01S
PORT FOURCHON* NOT AVBL

$$

MSZ070-080>082-301000-
SOUTHERN MISSISSIPPI

CITY           SKY/WX    TMP DP  RH WIND       PRES   REMARKS
MCCOMB         CLEAR     73  71  93 CALM      30.01S
GULFPORT       CLEAR     78  75  90 CALM      29.99S
BILOXI         PTCLDY    81  78  92 W1        29.99F
PASCAGOULA     CLOUDY    76  76 100 W6        30.00R

$$

COASTAL OBSERVATIONS
LAKE AND NEARSHORE STATIONS

STATION/POSITION TIME  TEMP    WIND        PRES    WAVE
                       AIR SEA DIR/SP/G            HT/PER
                 (UTC) (F)     (DEG/KT/KT) (MB)    (FT/S)
PASCAGOULA       0800   85     230/  7/  9 1015.2
WAVELAND YACHT   0800   80 87  290/  3/  4 1015.8
GRAND ISLE       0800   84 89  230/  3/  7 1016.0
SOUTHWEST PASS   0800          210/  4/  7   N/A
NEW CANAL        0800   81 87  230/  3/  4 1015.3
SHELL BEACH      0800   83 88  290/  7/  7 1016.2

OFFSHORE STATIONS

STATION/POSITION TIME  TEMP    WIND        PRES    WAVE
                       AIR SEA DIR/SP/G            HT/PER
                 (UTC) (F)     (DEG/KT/KT) (MB)    (FT/S)
64 S DAUPHIN ISL 0800   85 89  220/ 10/ 12 1015.5

$$





USA.gov is the U.S. government's official web portal to all federal, state and local government web resources and services.